AAL542 YSSY-YMML

Flight info

Callsign AAL542
Flight time 1h 6m
Altitude 40000
Route WOL H65 LEECE Q29 ML
Aircraft B77W/H-SDE1E2E3FGHIJ2J3J4J5M1RWXY/LB1D1

Departure

Time 2026-05-04 06:51
Airport Sydney Kingsford Smith International Airport (YSSY)

Arrival

Time 2026-05-04 07:57
Airport Melbourne Airport (YMML)
Time Latitude Longitude Altitude Speed Heading
2026-05-04 06:15 -33.93402 151.16783 26 ft 0 kts 251°
2026-05-04 06:33 -33.93377 151.16828 31 ft 2 kts 217°
2026-05-04 06:34 -33.93365 151.16836 31 ft 2 kts 201°
2026-05-04 06:34 -33.93353 151.16841 31 ft 2 kts 188°
2026-05-04 06:34 -33.93339 151.16843 31 ft 2 kts 176°
2026-05-04 06:34 -33.93338 151.16842 31 ft 0 kts 175°
2026-05-04 06:36 -33.93422 151.16887 29 ft 9 kts 155°
2026-05-04 06:37 -33.93483 151.16925 29 ft 10 kts 142°
2026-05-04 06:37 -33.93503 151.17002 30 ft 10 kts 86°
2026-05-04 06:37 -33.93514 151.17087 30 ft 11 kts 129°
2026-05-04 06:37 -33.93585 151.17123 28 ft 12 kts 163°
2026-05-04 06:38 -33.93665 151.17145 28 ft 12 kts 167°
2026-05-04 06:38 -33.93760 151.17170 23 ft 16 kts 167°
2026-05-04 06:40 -33.93956 151.17277 23 ft 0 kts 79°
2026-05-04 06:40 -33.93952 151.17304 26 ft 5 kts 78°
2026-05-04 06:41 -33.93938 151.17368 26 ft 12 kts 72°
2026-05-04 06:41 -33.93914 151.17463 24 ft 12 kts 73°
2026-05-04 06:41 -33.93890 151.17563 26 ft 14 kts 74°
2026-05-04 06:41 -33.93863 151.17687 27 ft 16 kts 81°
2026-05-04 06:42 -33.93917 151.17783 29 ft 16 kts 162°
2026-05-04 06:42 -33.94039 151.17820 28 ft 23 kts 167°
2026-05-04 06:42 -33.94197 151.17861 29 ft 23 kts 168°
2026-05-04 06:44 -33.95098 151.18110 30 ft 15 kts 87°
2026-05-04 06:44 -33.95082 151.18205 29 ft 18 kts 72°
2026-05-04 06:44 -33.95056 151.18351 30 ft 18 kts 81°
2026-05-04 06:45 -33.95050 151.18389 31 ft 0 kts 79°
2026-05-04 06:45 -33.95047 151.18412 31 ft 10 kts 79°
2026-05-04 06:45 -33.95067 151.18496 32 ft 11 kts 133°
2026-05-04 06:46 -33.95137 151.18569 30 ft 15 kts 139°
2026-05-04 06:46 -33.95240 151.18678 31 ft 23 kts 144°
2026-05-04 06:46 -33.95394 151.18741 28 ft 24 kts 169°
2026-05-04 06:46 -33.95563 151.18785 28 ft 25 kts 167°
2026-05-04 06:48 -33.96778 151.19072 28 ft 23 kts 184°
2026-05-04 06:48 -33.96933 151.19098 28 ft 12 kts 168°
2026-05-04 06:49 -33.97016 151.19119 28 ft 12 kts 167°
2026-05-04 06:50 -33.95983 151.19099 37 ft 153 kts 348°
2026-05-04 06:51 -33.94873 151.18797 692 ft 162 kts 351°
2026-05-04 06:51 -33.93757 151.18851 1549 ft 168 kts 20°
2026-05-04 06:51 -33.92687 151.19689 1920 ft 205 kts 40°
2026-05-04 06:51 -33.91863 151.21297 2210 ft 252 kts 69°
2026-05-04 06:52 -33.91954 151.23503 2936 ft 280 kts 106°
2026-05-04 06:52 -33.92805 151.25645 3772 ft 289 kts 115°
2026-05-04 06:52 -33.93613 151.27841 4802 ft 282 kts 100°
2026-05-04 06:52 -33.93763 151.30117 6009 ft 267 kts 82°
2026-05-04 06:53 -33.93667 151.32315 7141 ft 258 kts 82°
2026-05-04 06:53 -33.93592 151.34442 8188 ft 252 kts 82°
2026-05-04 06:53 -33.93516 151.36610 8732 ft 271 kts 83°
2026-05-04 06:53 -33.93436 151.39005 9074 ft 296 kts 85°
2026-05-04 06:54 -33.93845 151.41488 9694 ft 315 kts 116°
2026-05-04 06:54 -33.95284 151.43499 10417 ft 326 kts 147°
2026-05-04 06:54 -33.97422 151.44598 10783 ft 349 kts 171°
2026-05-04 06:54 -33.99922 151.44730 11020 ft 373 kts 190°
2026-05-04 06:55 -34.02503 151.43991 11500 ft 388 kts 202°
2026-05-04 06:55 -34.04950 151.42625 12246 ft 389 kts 220°
2026-05-04 06:55 -34.06943 151.40424 13298 ft 389 kts 232°
2026-05-04 06:55 -34.08693 151.37980 14367 ft 393 kts 234°
2026-05-04 06:56 -34.10455 151.35435 15414 ft 398 kts 234°
2026-05-04 06:57 -34.24467 151.17620 22070 ft 432 kts 231°
2026-05-04 06:58 -34.26589 151.15031 22935 ft 436 kts 231°
2026-05-04 06:58 -34.28730 151.12413 23737 ft 440 kts 232°
2026-05-04 06:58 -34.30893 151.09764 24410 ft 444 kts 232°
2026-05-04 06:58 -34.33077 151.07086 25066 ft 449 kts 232°
2026-05-04 06:59 -34.35285 151.04375 25657 ft 455 kts 232°
2026-05-04 06:59 -34.37520 151.01630 26293 ft 459 kts 232°
2026-05-04 06:59 -34.39774 150.98860 26930 ft 463 kts 232°
2026-05-04 06:59 -34.42047 150.96065 27534 ft 468 kts 232°
2026-05-04 07:01 -34.58073 150.75525 31182 ft 475 kts 240°
2026-05-04 07:01 -34.60000 150.72306 31976 ft 468 kts 241°
2026-05-04 07:02 -34.61893 150.69118 32737 ft 462 kts 242°
2026-05-04 07:02 -34.63762 150.65969 33473 ft 457 kts 242°
2026-05-04 07:02 -34.65611 150.62866 34173 ft 451 kts 242°
2026-05-04 07:02 -34.67450 150.59788 34704 ft 449 kts 242°
2026-05-04 07:03 -34.69284 150.56720 35065 ft 449 kts 242°
2026-05-04 07:03 -34.71119 150.53653 35482 ft 448 kts 242°
2026-05-04 07:03 -34.72950 150.50595 35952 ft 446 kts 242°
2026-05-04 07:03 -34.74770 150.47558 36403 ft 443 kts 242°
2026-05-04 07:04 -34.76581 150.44532 36828 ft 442 kts 242°
2026-05-04 07:04 -34.78388 150.41508 37203 ft 441 kts 242°
2026-05-04 07:04 -34.80193 150.38485 37555 ft 441 kts 242°
2026-05-04 07:04 -34.81998 150.35458 37889 ft 442 kts 242°
2026-05-04 07:05 -34.83804 150.32425 38118 ft 443 kts 242°
2026-05-04 07:05 -34.85614 150.29387 38331 ft 442 kts 242°
2026-05-04 07:05 -34.87415 150.26364 38543 ft 440 kts 242°
2026-05-04 07:05 -34.89205 150.23359 38728 ft 437 kts 242°
2026-05-04 07:06 -34.92754 150.17388 39079 ft 433 kts 242°
2026-05-04 07:06 -34.94514 150.14418 39236 ft 433 kts 242°
2026-05-04 07:07 -34.98069 150.08404 39458 ft 441 kts 242°
2026-05-04 07:08 -35.10519 149.87354 39994 ft 425 kts 242°
2026-05-04 07:09 -35.12246 149.84421 40028 ft 426 kts 242°
2026-05-04 07:09 -35.15727 149.78490 40024 ft 432 kts 242°
2026-05-04 07:10 -35.19256 149.72476 40019 ft 437 kts 242°
2026-05-04 07:12 -35.33515 149.48116 40040 ft 439 kts 242°
2026-05-04 07:12 -35.37065 149.42022 40030 ft 438 kts 242°
2026-05-04 07:13 -35.40598 149.35945 40037 ft 437 kts 242°
2026-05-04 07:13 -35.44120 149.29877 40051 ft 436 kts 242°
2026-05-04 07:14 -35.52892 149.14718 40027 ft 437 kts 242°
2026-05-04 07:15 -35.56409 149.08623 40039 ft 437 kts 243°
2026-05-04 07:15 -35.59926 149.02516 40001 ft 438 kts 243°
2026-05-04 07:16 -35.63434 148.96419 40024 ft 437 kts 243°
2026-05-04 07:16 -35.66941 148.90301 40009 ft 438 kts 243°
2026-05-04 07:17 -35.70452 148.84172 40026 ft 439 kts 243°
2026-05-04 07:17 -35.73979 148.78005 40027 ft 441 kts 243°
2026-05-04 07:18 -35.77488 148.71859 40021 ft 442 kts 243°
2026-05-04 07:18 -35.81046 148.65616 40023 ft 442 kts 243°
2026-05-04 07:19 -35.84550 148.59456 40019 ft 442 kts 243°
2026-05-04 07:19 -35.88079 148.53241 40039 ft 442 kts 243°
2026-05-04 07:20 -35.91590 148.47021 40038 ft 441 kts 243°
2026-05-04 07:20 -35.95085 148.40798 40034 ft 441 kts 243°
2026-05-04 07:22 -36.09055 148.15828 40040 ft 444 kts 243°
2026-05-04 07:23 -36.12560 148.09539 40042 ft 444 kts 243°
2026-05-04 07:23 -36.16082 148.03237 40036 ft 445 kts 243°
2026-05-04 07:24 -36.19604 147.96930 40036 ft 445 kts 243°
2026-05-04 07:24 -36.23118 147.90619 40060 ft 445 kts 243°
2026-05-04 07:26 -36.37111 147.65358 40032 ft 443 kts 243°
2026-05-04 07:27 -36.40588 147.59040 40058 ft 443 kts 243°
2026-05-04 07:27 -36.44067 147.52704 40027 ft 444 kts 243°
2026-05-04 07:28 -36.46960 147.47429 40034 ft 445 kts 243°
2026-05-04 07:28 -36.50446 147.41064 40019 ft 446 kts 243°
2026-05-04 07:29 -36.53937 147.34677 40043 ft 446 kts 243°
2026-05-04 07:29 -36.57421 147.28289 40030 ft 447 kts 243°
2026-05-04 07:30 -36.60910 147.21882 40013 ft 447 kts 243°
2026-05-04 07:30 -36.64377 147.15500 40021 ft 448 kts 243°
2026-05-04 07:31 -36.67866 147.09068 40042 ft 448 kts 243°
2026-05-04 07:33 -36.81780 146.83341 40026 ft 446 kts 243°
2026-05-04 07:33 -36.85225 146.76948 39524 ft 444 kts 243°
2026-05-04 07:34 -36.86944 146.73748 38968 ft 444 kts 243°
2026-05-04 07:34 -36.88666 146.70539 38232 ft 446 kts 243°
2026-05-04 07:34 -36.90398 146.67309 37461 ft 447 kts 244°
2026-05-04 07:34 -36.92131 146.64075 36724 ft 448 kts 244°
2026-05-04 07:35 -36.93866 146.60834 35989 ft 450 kts 244°
2026-05-04 07:35 -36.95610 146.57572 35171 ft 453 kts 244°
2026-05-04 07:35 -36.97368 146.54281 34323 ft 457 kts 244°
2026-05-04 07:35 -36.99141 146.50958 33305 ft 462 kts 244°
2026-05-04 07:36 -37.00906 146.47649 32298 ft 465 kts 244°
2026-05-04 07:36 -37.02708 146.44268 31285 ft 468 kts 244°
2026-05-04 07:38 -37.15102 146.20918 26015 ft 447 kts 245°
2026-05-04 07:38 -37.16809 146.17678 25332 ft 443 kts 245°
2026-05-04 07:38 -37.18501 146.14464 24671 ft 440 kts 244°
2026-05-04 07:38 -37.20181 146.11270 24014 ft 438 kts 244°
2026-05-04 07:39 -37.21854 146.08086 23286 ft 436 kts 244°
2026-05-04 07:39 -37.23516 146.04921 22515 ft 433 kts 243°
2026-05-04 07:39 -37.25164 146.01784 21888 ft 428 kts 243°
2026-05-04 07:39 -37.26798 145.98668 21202 ft 424 kts 243°
2026-05-04 07:40 -37.28410 145.95592 20557 ft 419 kts 242°
2026-05-04 07:40 -37.30005 145.92546 19903 ft 415 kts 242°
2026-05-04 07:40 -37.31583 145.89533 19283 ft 411 kts 242°
2026-05-04 07:40 -37.33152 145.86545 18657 ft 409 kts 241°
2026-05-04 07:41 -37.34714 145.83575 18009 ft 406 kts 241°
2026-05-04 07:41 -37.36266 145.80620 17306 ft 403 kts 241°
2026-05-04 07:41 -37.37799 145.77701 16680 ft 392 kts 241°
2026-05-04 07:41 -37.39267 145.74905 16073 ft 380 kts 240°
2026-05-04 07:42 -37.40713 145.72134 15484 ft 378 kts 241°
2026-05-04 07:42 -37.42154 145.69374 14898 ft 376 kts 240°
2026-05-04 07:42 -37.43587 145.66630 14316 ft 375 kts 240°
2026-05-04 07:42 -37.44996 145.63932 13742 ft 372 kts 240°
2026-05-04 07:43 -37.46465 145.61255 13108 ft 371 kts 238°
2026-05-04 07:43 -37.48000 145.58644 12513 ft 370 kts 238°
2026-05-04 07:43 -37.49541 145.56052 11925 ft 368 kts 238°
2026-05-04 07:43 -37.51044 145.53513 11359 ft 356 kts 238°
2026-05-04 07:44 -37.52507 145.51011 10866 ft 354 kts 238°
2026-05-04 07:44 -37.53909 145.48606 10688 ft 321 kts 239°
2026-05-04 07:44 -37.55190 145.46408 10601 ft 306 kts 239°
2026-05-04 07:44 -37.56422 145.44277 10512 ft 296 kts 240°
2026-05-04 07:45 -37.57601 145.42242 10384 ft 284 kts 240°
2026-05-04 07:45 -37.58749 145.40261 10274 ft 276 kts 240°
2026-05-04 07:45 -37.59877 145.38312 10181 ft 268 kts 240°
2026-05-04 07:45 -37.60946 145.36459 10035 ft 261 kts 241°
2026-05-04 07:46 -37.62005 145.34625 9821 ft 258 kts 241°
2026-05-04 07:46 -37.63058 145.32794 9534 ft 258 kts 241°
2026-05-04 07:46 -37.64112 145.30961 9212 ft 258 kts 242°
2026-05-04 07:46 -37.65164 145.29134 8911 ft 257 kts 242°
2026-05-04 07:47 -37.66219 145.27305 8611 ft 258 kts 242°
2026-05-04 07:47 -37.67274 145.25470 8310 ft 259 kts 241°
2026-05-04 07:47 -37.68334 145.23629 8017 ft 259 kts 241°
2026-05-04 07:49 -37.75622 145.10970 5914 ft 233 kts 243°
2026-05-04 07:49 -37.76568 145.09316 5631 ft 232 kts 243°
2026-05-04 07:49 -37.77512 145.07664 5343 ft 231 kts 243°
2026-05-04 07:50 -37.78448 145.06026 5063 ft 229 kts 243°
2026-05-04 07:50 -37.79379 145.04398 4805 ft 227 kts 243°
2026-05-04 07:50 -37.80293 145.02801 4552 ft 227 kts 243°
2026-05-04 07:50 -37.81198 145.01185 4265 ft 220 kts 249°
2026-05-04 07:51 -37.81640 144.99472 4126 ft 195 kts 267°
2026-05-04 07:51 -37.81907 144.97787 4024 ft 192 kts 265°
2026-05-04 07:51 -37.82188 144.96210 3919 ft 173 kts 265°
2026-05-04 07:51 -37.82445 144.94766 3883 ft 166 kts 266°
2026-05-04 07:52 -37.82645 144.93349 3804 ft 161 kts 269°
2026-05-04 07:52 -37.82817 144.91944 3740 ft 163 kts 269°
2026-05-04 07:52 -37.82992 144.90497 3545 ft 168 kts 269°
2026-05-04 07:52 -37.83151 144.89043 3345 ft 162 kts 278°
2026-05-04 07:53 -37.82834 144.87787 3176 ft 146 kts 307°
2026-05-04 07:54 -37.76663 144.85639 1965 ft 136 kts 346°
2026-05-04 07:55 -37.75722 144.85459 1766 ft 136 kts 347°
2026-05-04 07:55 -37.74819 144.85283 1564 ft 124 kts 347°
2026-05-04 07:55 -37.73983 144.85123 1423 ft 120 kts 348°
2026-05-04 07:55 -37.73146 144.84961 1267 ft 122 kts 351°
2026-05-04 07:56 -37.72315 144.84804 1090 ft 122 kts 352°
2026-05-04 07:56 -37.71464 144.84649 946 ft 125 kts 352°
2026-05-04 07:56 -37.70605 144.84487 747 ft 123 kts 352°
2026-05-04 07:56 -37.69754 144.84317 637 ft 128 kts 353°
2026-05-04 07:57 -37.68887 144.84139 469 ft 124 kts 353°
2026-05-04 07:57 -37.68032 144.84000 359 ft 120 kts 353°
2026-05-04 07:57 -37.67361 144.83873 376 ft 71 kts 352°
2026-05-04 07:57 -37.67055 144.83828 385 ft 18 kts
2026-05-04 07:58 -37.66996 144.83841 387 ft 17 kts 10°
2026-05-04 07:58 -37.66916 144.83870 388 ft 0 kts 19°
2026-05-04 07:58 -37.66900 144.83880 388 ft 5 kts 24°
2026-05-04 07:59 -37.66847 144.83909 388 ft 12 kts 21°
2026-05-04 07:59 -37.66768 144.83954 388 ft 12 kts 36°
2026-05-04 07:59 -37.66721 144.84044 386 ft 13 kts 72°
2026-05-04 07:59 -37.66705 144.84175 380 ft 17 kts 82°
2026-05-04 08:00 -37.66688 144.84314 376 ft 9 kts 79°
2026-05-04 08:00 -37.66672 144.84422 366 ft 16 kts 81°
2026-05-04 08:00 -37.66655 144.84567 359 ft 12 kts 82°
2026-05-04 08:02 -37.66822 144.84749 361 ft 0 kts 211°